Location: Blue Mountain Vista Observatory
(40.6992°N, 75.9422°W)
Time: 06:29:54
(UTC-05:00)

Amateur Radio Satellites - All Passes

Search period start: 18 December 2014 05:59
Search period end: 19 December 2014 05:59
Location: Blue Mountain Vista Observatory, 40.6992°N, 75.9422°W

Satellite Date Start Highest point End Downlink Frequencies (MHz)
Time Altitude Azimuth
GONETS M04 18 Dec 06:19:35 06:28:24 75° 279° (W) 06:37:17
PRISM 18 Dec 06:22:25 06:25:45 22° 265° (W) 06:29:05 437.425
STRAND 1 18 Dec 06:25:55 06:30:58 62° 258° (WSW) 06:36:03 437.568
CUTE-I 18 Dec 06:31:56 06:37:16 85° 104° (ESE) 06:42:35 437.470
VERMONT LUNAR 18 Dec 06:46:11 06:49:44 89° 181° (S) 06:53:16 437.305
PHONESAT 2.4 18 Dec 06:46:11 06:49:49 89° 178° (S) 06:53:28 2401.200-2431.200
AO-7 18 Dec 06:51:47 06:56:47 18° 311° (NW) 07:01:47 29.400- 29.500
JAS-2 18 Dec 07:19:37 07:20:47 11° 307° (NW) 07:21:56 435.910
SO-50 18 Dec 07:27:31 07:31:49 31° 246° (WSW) 07:36:07 436.795
CUBESAT XI-V 18 Dec 07:27:53 07:29:59 13° 270° (W) 07:32:05 437.345
BRITE-PL 18 Dec 07:36:14 07:36:34 10° 90° (E) 07:36:55 437.365/2234.400
Cubesat XI-IV 18 Dec 07:38:36 07:42:52 25° 295° (WNW) 07:47:07 437.490
HO-68 18 Dec 07:40:16 07:44:50 18° 91° (E) 07:49:22 435.675
CUTE-I 18 Dec 08:14:12 08:16:35 13° 301° (WNW) 08:18:58 437.470
GOMX 1 18 Dec 08:14:21 08:17:49 20° 94° (E) 08:21:27 467.674
GONETS M04 18 Dec 08:22:17 08:26:55 15° 301° (WNW) 08:31:35
VERMONT LUNAR 18 Dec 08:24:34 08:27:59 47° 199° (SSW) 08:31:24 437.305
PHONESAT 2.4 18 Dec 08:24:54 08:28:30 62° 195° (SSW) 08:32:06 2401.200-2431.200
AAUSAT CUBESAT 2 18 Dec 08:37:25 08:40:57 25° 95° (E) 08:44:27 437.432
CANX-2 18 Dec 08:40:34 08:44:46 48° 99° (E) 08:48:55 2200.000
TIGRISAT 18 Dec 08:50:57 08:53:46 17° 64° (ENE) 08:56:38 435.000
DOVE 4 18 Dec 08:51:58 08:56:19 36° 98° (E) 09:00:53 437.250
QB50P1 18 Dec 08:55:52 08:57:34 12° 63° (ENE) 08:59:17 145.935-145.965
DANDE 18 Dec 09:02:25 09:03:55 12° 81° (E) 09:05:35 436.750
COMPASS 1 18 Dec 09:10:12 09:14:28 69° 101° (ESE) 09:18:42 437.405
BRITE-PL 18 Dec 09:10:51 09:15:28 80° 284° (WNW) 09:20:28 437.365/2234.400
CUTE 1.7 + AOD 2 18 Dec 09:11:41 09:16:02 82° 284° (WNW) 09:20:20 437.475
DX 1 18 Dec 09:11:49 09:15:15 22° 95° (E) 09:18:39 434.975-435.025
SEEDS 18 Dec 09:11:56 09:16:15 86° 103° (ESE) 09:20:32 437.485
UNISAT 6 18 Dec 09:17:21 09:21:13 32° 69° (ENE) 09:25:11 437.425
MaSat-1 18 Dec 09:18:42 09:21:04 81° 115° (ESE) 09:23:20 437.345
POPSAT HIP 1 18 Dec 09:22:18 09:25:39 24° 68° (ENE) 09:29:00 437.405
HO-68 18 Dec 09:26:05 09:33:16 81° 288° (WNW) 09:40:24 435.675
CINEMA 3 18 Dec 09:37:29 09:42:09 64° 101° (E) 09:47:00 145.822/145.860
Oscar 11 18 Dec 09:38:31 09:42:52 61° 101° (E) 09:47:10 145.826/435.025
CUBEBUG 2 18 Dec 09:39:10 09:43:32 40° 98° (E) 09:47:58 437.445
DELFI C3 18 Dec 09:43:22 09:47:27 58° 100° (E) 09:51:29 145.870
UKube-1 18 Dec 09:45:18 09:49:32 51° 100° (E) 09:53:44 .
50 SAT 18 Dec 09:47:28 09:49:56 15° 92° (E) 09:52:24 437.505
HUMSAT D 18 Dec 09:47:56 09:51:10 20° 94° (E) 09:54:24 437.325/437.525
ANTELSAT 18 Dec 09:48:27 09:52:46 72° 75° (ENE) 09:57:13 437.575/2403.000
RS-15 18 Dec 09:50:35 09:52:28 11° 94° (E) 09:54:21 29.354- 29.394
DUCHIFAT 1 18 Dec 09:50:54 09:54:56 48° 73° (ENE) 09:59:00 145.980
GOMX 1 18 Dec 09:51:39 09:56:03 43° 288° (WNW) 10:00:45 467.674
VELOX 1 18 Dec 09:54:49 09:58:16 22° 95° (E) 10:01:42 145.980
ZACube-1 18 Dec 10:01:38 10:06:02 51° 100° (E) 10:10:29 437.345
QB50P2 18 Dec 10:02:18 10:06:29 68° 75° (ENE) 10:10:41 145.880/145.840
BUGSAT 1 18 Dec 10:03:10 10:07:11 53° 74° (ENE) 10:11:10 437.445
VERMONT LUNAR 18 Dec 10:04:06 10:05:48 13° 214° (SSW) 10:07:30 437.305
PHONESAT 2.4 18 Dec 10:04:08 10:06:49 19° 210° (SSW) 10:09:29 2401.200-2431.200
CUSAT 1 18 Dec 10:04:19 10:07:39 76° 281° (W) 10:12:07 437.405
POLYITAN 1 18 Dec 10:10:07 10:14:19 83° 76° (ENE) 10:18:33 437.675
AAUSAT CUBESAT 2 18 Dec 10:12:59 10:16:33 27° 291° (WNW) 10:20:07 437.432
NANOSAT C BR1 18 Dec 10:14:47 10:18:59 88° 257° (WSW) 10:23:13 145.865
CANX-2 18 Dec 10:17:42 10:20:18 16° 295° (WNW) 10:22:53 2200.000
UWE-3 18 Dec 10:22:57 10:27:31 80° 284° (WNW) 10:32:10 435.000/436.395/437.385
TIGRISAT 18 Dec 10:26:02 10:30:09 44° 261° (W) 10:34:23 435.000
QB50P1 18 Dec 10:28:48 10:32:57 60° 259° (W) 10:37:08 145.935-145.965
FUNcube-1 18 Dec 10:29:09 10:33:40 82° 284° (WNW) 10:38:15 145.935
DOVE 4 18 Dec 10:30:08 10:33:55 25° 292° (WNW) 10:37:52 437.250
O/OREOS (USA 219) 18 Dec 10:30:51 10:35:08 41° 63° (ENE) 10:39:25 437.305
AISAT 18 Dec 10:35:42 10:40:07 64° 102° (ESE) 10:44:31 437.250
YUBILEINY 18 Dec 10:35:58 10:44:18 47° 75° (ENE) 10:52:33 435.215
DANDE 18 Dec 10:43:47 10:46:45 30° 290° (WNW) 10:50:31 436.750
DX 1 18 Dec 10:47:40 10:51:30 31° 291° (WNW) 10:55:20 434.975-435.025
COMPASS 1 18 Dec 10:48:22 10:49:36 11° 298° (WNW) 10:50:50 437.405
CUBEBUG 1 18 Dec 10:51:49 10:55:47 34° 97° (E) 10:59:43 437.445
UNISAT 6 18 Dec 10:54:42 10:58:04 22° 266° (W) 11:01:30 437.425
POPSAT HIP 1 18 Dec 10:57:47 11:01:25 28° 264° (W) 11:05:05 437.405
HO-68 18 Dec 11:15:50 11:19:53 16° 307° (NW) 11:23:55 435.675
CINEMA 3 18 Dec 11:16:20 11:18:53 15° 296° (WNW) 11:21:28 145.822/145.860
Oscar 11 18 Dec 11:16:31 11:18:30 13° 297° (WNW) 11:20:29 145.826/435.025
CUBEBUG 2 18 Dec 11:16:33 11:19:57 21° 293° (WNW) 11:23:25 437.445
Oscar 19 18 Dec 11:17:54 11:20:20 14° 60° (ENE) 11:22:47 437.125/150
DELFI C3 18 Dec 11:20:32 11:22:13 12° 297° (WNW) 11:23:53 145.870
50 SAT 18 Dec 11:21:26 11:25:21 42° 288° (WNW) 11:29:17 437.505
UKube-1 18 Dec 11:22:48 11:25:16 15° 297° (WNW) 11:27:43 .
HUMSAT D 18 Dec 11:23:07 11:27:02 34° 289° (WNW) 11:30:58 437.325/437.525
ESTCUBE 1 18 Dec 11:23:20 11:27:51 83° 103° (ESE) 11:32:20 437.505/2401.250
DUCHIFAT 1 18 Dec 11:28:56 11:31:04 14° 268° (W) 11:33:13 145.980
VELOX 1 18 Dec 11:30:56 11:34:54 33° 290° (WNW) 11:38:50 145.980
ZACube-1 18 Dec 11:39:13 11:42:01 16° 295° (WNW) 11:44:50 437.345
BUGSAT 1 18 Dec 11:41:30 11:42:59 12° 269° (W) 11:44:28 437.445
RS-15 18 Dec 11:51:39 12:02:21 63° 114° (ESE) 12:13:02 29.354- 29.394
SPROUT 18 Dec 12:10:11 12:14:26 59° 101° (E) 12:18:40 437.525
O/OREOS (USA 219) 18 Dec 12:11:06 12:14:12 18° 259° (W) 12:17:17 437.305
AISAT 18 Dec 12:14:14 12:16:12 13° 298° (WNW) 12:18:10 437.250
TISAT 1 18 Dec 12:15:27 12:19:40 74° 102° (ESE) 12:23:53 437.305
BEESAT 18 Dec 12:17:55 12:19:09 11° 89° (E) 12:20:22 436.000
CUBEBUG 1 18 Dec 12:28:41 12:31:56 21° 293° (WNW) 12:35:10 437.445
YUBILEINY 18 Dec 12:33:09 12:40:50 37° 274° (W) 12:48:33 435.215
Gurwin Techsat 1B 18 Dec 12:45:28 12:49:21 21° 64° (ENE) 12:53:15 435.225
BEESAT 3 18 Dec 12:46:15 12:48:35 15° 109° (ESE) 12:50:56 437.485
PCSat 18 Dec 12:51:42 12:54:19 14° 103° (ESE) 12:56:55 145.827
Oscar 19 18 Dec 12:53:51 12:58:58 79° 257° (WSW) 13:04:10 437.125/150
ESTCUBE 1 18 Dec 13:03:23 13:04:02 10° 300° (WNW) 13:04:41 437.505/2401.250
ITAMSAT 1 18 Dec 13:04:03 13:09:01 49° 71° (ENE) 13:14:01 435.822/435.867
BEESAT 2 18 Dec 13:22:11 13:25:51 32° 115° (ESE) 13:29:35 435.950
M-CUBED/EXP-1 PRIME 18 Dec 13:23:24 13:26:41 20° 97° (E) 13:29:45 437.505
ITUPSAT 1 18 Dec 13:26:35 13:31:19 58° 101° (E) 13:35:59 437.325
SWISSCUBE 18 Dec 13:27:10 13:31:56 65° 102° (ESE) 13:36:38 437.505
SPROUT 18 Dec 13:48:04 13:50:01 13° 297° (WNW) 13:51:58 437.525
BEESAT 18 Dec 13:52:44 13:57:31 75° 285° (WNW) 14:02:15 436.000
TISAT 1 18 Dec 13:54:16 13:54:53 10° 298° (WNW) 13:55:30 437.305
ISS 18 Dec 13:58:36 14:01:39 35° 136° (SE) 14:04:42 145.825
KKS-1 18 Dec 14:00:35 14:04:23 27° 96° (E) 14:08:11 437.445
STARS 18 Dec 14:02:52 14:06:02 19° 94° (E) 14:09:12 437.465
AO-7 18 Dec 14:04:13 14:11:22 34° 58° (ENE) 14:18:33 29.400- 29.500
RS-15 18 Dec 14:05:04 14:15:13 42° 318° (NW) 14:25:31 29.354- 29.394
AIST 2 18 Dec 14:14:37 14:18:44 56° 118° (ESE) 14:22:57 435.215
BEESAT 3 18 Dec 14:22:20 14:26:20 50° 306° (NW) 14:30:24 437.485
Gurwin Techsat 1B 18 Dec 14:23:47 14:28:55 51° 260° (W) 14:34:06 435.225
HORYU 2 18 Dec 14:27:41 14:32:08 75° 75° (ENE) 14:36:37 437.375
PCSat 18 Dec 14:31:35 14:36:59 78° 300° (WNW) 14:42:27 145.827
AUBIESAT-1 18 Dec 14:33:42 14:38:08 71° 290° (WNW) 14:42:09 437.475
ITAMSAT 1 18 Dec 14:45:03 14:48:45 20° 267° (W) 14:52:29 435.822/435.867
M-CUBED/EXP-1 PRIME 18 Dec 14:57:45 15:01:50 36° 296° (WNW) 15:05:37 437.505
BEESAT 2 18 Dec 15:00:41 15:04:08 25° 312° (NW) 15:07:39 435.950
ITUPSAT 1 18 Dec 15:05:52 15:08:42 16° 297° (WNW) 15:11:33 437.325
SWISSCUBE 18 Dec 15:06:44 15:09:13 14° 298° (WNW) 15:11:43 437.505
ISS 18 Dec 15:35:17 15:38:15 30° 333° (NNW) 15:41:13 145.825
KKS-1 18 Dec 15:37:10 15:40:58 28° 292° (WNW) 15:44:46 437.445
STARS 18 Dec 15:38:32 15:42:39 38° 289° (WNW) 15:46:45 437.465
JAS-2 18 Dec 15:40:29 15:47:48 49° 69° (ENE) 15:54:34 435.910
AIST 2 18 Dec 15:54:45 15:57:42 18° 316° (NW) 16:00:41 435.215
AO-7 18 Dec 15:55:34 16:03:43 58° 257° (WSW) 16:11:57 29.400- 29.500
AIST 1 18 Dec 16:00:59 16:04:40 27° 90° (E) 16:08:22
CUTE-I 18 Dec 16:15:56 16:19:27 18° 62° (ENE) 16:22:57 437.470
PCSat 18 Dec 16:18:25 16:21:19 14° 320° (NW) 16:24:13 145.827
RS-15 18 Dec 16:24:10 16:31:43 20° 351° (N) 16:39:25 29.354- 29.394
MOZHAYETS 4 18 Dec 16:28:43 16:32:56 33° 97° (E) 16:37:05
GONETS M04 18 Dec 16:30:25 16:39:02 56° 77° (ENE) 16:47:30
ISS 18 Dec 17:14:00 17:15:39 13° 353° (N) 17:17:17 145.825
Cubesat XI-IV 18 Dec 17:19:43 17:25:00 68° 73° (ENE) 17:30:18 437.490
JAS-2 18 Dec 17:25:59 17:32:52 35° 264° (W) 17:39:21 435.910
AIST 1 18 Dec 17:38:41 17:42:16 24° 286° (WNW) 17:45:53
CUBESAT XI-V 18 Dec 17:46:05 17:48:53 16° 91° (E) 17:51:40 437.345
CUTE-I 18 Dec 17:53:45 17:59:00 61° 259° (WSW) 18:04:17 437.470
PRISM 18 Dec 18:04:55 18:09:00 51° 100° (E) 18:13:01 437.425
MOZHAYETS 4 18 Dec 18:06:16 18:09:58 24° 293° (WNW) 18:13:38
HO-68 18 Dec 18:10:36 18:14:17 15° 52° (NE) 18:17:58 435.675
GONETS M04 18 Dec 18:27:59 18:35:20 31° 277° (W) 18:42:37
STRAND 1 18 Dec 18:36:50 18:41:43 45° 99° (E) 18:46:34 437.568
RS-15 18 Dec 18:40:22 18:49:28 27° 28° (NNE) 18:58:48 29.354- 29.394
MaSat-1 18 Dec 18:50:06 18:52:29 71° 245° (WSW) 18:55:02 437.345
ISS 18 Dec 18:51:12 18:53:17 16° 14° (NNE) 18:55:21 145.825
CUSAT 1 18 Dec 18:59:52 19:04:47 18° 65° (ENE) 19:10:04 437.405
Cubesat XI-IV 18 Dec 19:02:38 19:05:33 15° 269° (W) 19:08:29 437.490
CUBESAT XI-V 18 Dec 19:22:09 19:26:36 49° 287° (WNW) 19:31:00 437.345
GOMX 1 18 Dec 19:23:42 19:26:30 18° 66° (ENE) 19:29:18 467.674
AAUSAT CUBESAT 2 18 Dec 19:29:18 19:32:08 18° 66° (ENE) 19:34:59 437.432
CANX-2 18 Dec 19:33:38 19:37:27 33° 71° (ENE) 19:41:19 2200.000
DANDE 18 Dec 19:39:30 19:45:54 30° 71° (ENE) 19:53:05 436.750
PRISM 18 Dec 19:41:57 19:44:05 14° 297° (WNW) 19:46:12 437.425
HO-68 18 Dec 19:53:39 20:00:48 75° 71° (ENE) 20:07:59 435.675
DOVE 4 18 Dec 19:58:29 20:02:07 31° 70° (ENE) 20:05:48 437.250
COMPASS 1 18 Dec 20:01:36 20:05:36 45° 73° (ENE) 20:09:40 437.405
SEEDS 18 Dec 20:03:55 20:08:03 57° 74° (ENE) 20:12:16 437.485
CUTE 1.7 + AOD 2 18 Dec 20:04:17 20:08:31 68° 75° (ENE) 20:12:47 437.475
DX 1 18 Dec 20:07:46 20:10:57 20° 66° (ENE) 20:14:08 434.975-435.025
STRAND 1 18 Dec 20:16:45 20:20:35 22° 296° (WNW) 20:24:25 437.568
BRITE-PL 18 Dec 20:22:20 20:26:33 69° 259° (WSW) 20:30:41 437.365/2234.400
ISS 18 Dec 20:27:12 20:30:26 54° 33° (NNE) 20:33:38 145.825
DELFI C3 18 Dec 20:31:50 20:35:34 35° 71° (ENE) 20:39:20 145.870
Oscar 11 18 Dec 20:33:04 20:37:11 45° 72° (ENE) 20:41:21 145.826/435.025
CUBEBUG 2 18 Dec 20:38:01 20:41:41 31° 70° (ENE) 20:45:25 437.445
CINEMA 3 18 Dec 20:39:43 20:43:44 52° 73° (ENE) 20:47:51 145.822/145.860
UKube-1 18 Dec 20:40:11 20:44:17 42° 71° (ENE) 20:48:23 .
CUSAT 1 18 Dec 20:41:05 20:48:40 82° 81° (E) 20:57:14 437.405
HUMSAT D 18 Dec 20:41:16 20:43:31 14° 64° (ENE) 20:45:47 437.325/437.525
RS-15 18 Dec 20:52:50 21:04:08 74° 55° (NE) 21:15:56 29.354- 29.394
VELOX 1 18 Dec 20:52:59 20:56:14 21° 66° (ENE) 20:59:30 145.980
ZACube-1 18 Dec 20:57:59 21:01:49 37° 71° (ENE) 21:05:44 437.345
GOMX 1 18 Dec 21:00:34 21:04:24 35° 262° (W) 21:08:14 467.674
AAUSAT CUBESAT 2 18 Dec 21:03:33 21:07:29 39° 262° (W) 21:11:28 437.432
BEESAT 3 18 Dec 21:05:52 21:07:39 12° 40° (NE) 21:09:25 437.485
CANX-2 18 Dec 21:10:16 21:13:27 20° 267° (W) 21:16:40 2200.000
UWE-3 18 Dec 21:20:13 21:24:22 80° 76° (ENE) 21:28:38 435.000/436.395/437.385
DANDE 18 Dec 21:22:15 21:29:39 64° 265° (W) 21:38:09 436.750
FUNcube-1 18 Dec 21:25:02 21:29:11 76° 76° (ENE) 21:33:25 145.935
AISAT 18 Dec 21:33:37 21:37:57 56° 73° (ENE) 21:42:17 437.250
DOVE 4 18 Dec 21:36:55 21:39:59 20° 266° (W) 21:43:04 437.250
PCSat 18 Dec 21:38:03 21:40:58 14° 40° (NE) 21:43:52 145.827
COMPASS 1 18 Dec 21:39:10 21:41:34 15° 269° (W) 21:43:59 437.405
SO-50 18 Dec 21:41:16 21:45:48 85° 302° (WNW) 21:50:30 436.795
ANTELSAT 18 Dec 21:42:02 21:45:05 17° 92° (E) 21:48:08 437.575/2403.000
BEESAT 2 18 Dec 21:42:37 21:45:57 22° 46° (NE) 21:49:14 435.950
SEEDS 18 Dec 21:42:43 21:44:15 12° 270° (W) 21:45:48 437.485
DX 1 18 Dec 21:42:56 21:46:57 36° 262° (W) 21:50:58 434.975-435.025
HO-68 18 Dec 21:44:10 21:49:08 20° 268° (W) 21:54:08 435.675
CUBEBUG 1 18 Dec 21:48:10 21:51:55 29° 69° (ENE) 21:55:41 437.445
QB50P2 18 Dec 21:50:36 21:52:00 11° 90° (E) 21:53:25 145.880/145.840
POLYITAN 1 18 Dec 21:57:50 22:00:09 14° 92° (E) 22:02:28 437.675
NANOSAT C BR1 18 Dec 22:01:48 22:04:21 15° 92° (E) 22:06:53 145.865
ISS 18 Dec 22:04:35 22:06:43 16° 229° (SW) 22:08:51 145.825
DELFI C3 18 Dec 22:08:06 22:10:56 18° 267° (W) 22:13:48 145.870
50 SAT 18 Dec 22:09:15 22:13:14 70° 259° (WSW) 22:17:17 437.505
Oscar 11 18 Dec 22:10:59 22:13:35 16° 268° (W) 22:16:12 145.826/435.025
HUMSAT D 18 Dec 22:14:55 22:18:54 48° 261° (W) 22:22:57 437.325/437.525
QB50P1 18 Dec 22:15:11 22:18:31 22° 95° (E) 22:21:50 145.935-145.965
CUBEBUG 2 18 Dec 22:15:16 22:18:26 21° 266° (W) 22:21:40 437.445
UKube-1 18 Dec 22:17:52 22:20:38 17° 267° (W) 22:23:24 .
TIGRISAT 18 Dec 22:17:54 22:22:18 39° 98° (E) 22:26:42 435.000
CINEMA 3 18 Dec 22:19:46 22:21:20 12° 270° (W) 22:22:55 145.822/145.860
ESTCUBE 1 18 Dec 22:22:39 22:27:10 74° 75° (ENE) 22:31:43 437.505/2401.250
CUSAT 1 18 Dec 22:25:40 22:31:09 22° 275° (W) 22:37:03 437.405
VELOX 1 18 Dec 22:28:28 22:32:34 37° 262° (W) 22:36:41 145.980
ZACube-1 18 Dec 22:35:32 22:38:21 18° 268° (W) 22:41:12 437.345
AIST 2 18 Dec 22:37:02 22:41:01 35° 51° (NE) 22:44:55 435.215
BEESAT 3 18 Dec 22:42:16 22:46:28 90° 60° (ENE) 22:50:35 437.485
POPSAT HIP 1 18 Dec 22:43:00 22:47:06 45° 99° (E) 22:51:11 437.405
UNISAT 6 18 Dec 22:45:42 22:50:26 78° 102° (ESE) 22:55:09 437.425
SPROUT 18 Dec 23:04:16 23:08:19 43° 72° (ENE) 23:12:23 437.525
RS-15 18 Dec 23:06:14 23:15:35 31° 255° (WSW) 23:25:18 29.354- 29.394
TISAT 1 18 Dec 23:07:46 23:11:51 52° 73° (ENE) 23:15:57 437.305
DANDE 18 Dec 23:09:41 23:12:06 12° 280° (W) 23:14:37 436.750
DUCHIFAT 1 18 Dec 23:12:00 23:16:16 84° 284° (WNW) 23:20:31 145.980
AISAT 18 Dec 23:12:51 23:14:54 13° 269° (W) 23:16:58 437.250
ANTELSAT 18 Dec 23:17:35 23:22:07 49° 288° (WNW) 23:26:40 437.575/2403.000
PCSat 18 Dec 23:19:50 23:25:17 78° 60° (ENE) 23:30:42 145.827
BEESAT 2 18 Dec 23:20:25 23:24:20 39° 244° (WSW) 23:28:12 435.950
BUGSAT 1 18 Dec 23:21:18 23:25:22 81° 284° (WNW) 23:29:26 437.445
BEESAT 18 Dec 23:24:00 23:26:27 14° 61° (ENE) 23:28:53 436.000
QB50P2 18 Dec 23:24:05 23:28:17 59° 286° (WNW) 23:32:29 145.880/145.840
SO-50 18 Dec 23:24:39 23:27:06 14° 322° (NW) 23:29:35 436.795
CUBEBUG 1 18 Dec 23:24:40 23:28:15 25° 265° (W) 23:31:52 437.445
POLYITAN 1 18 Dec 23:32:13 23:36:21 48° 287° (WNW) 23:40:28 437.675
YUBILEINY 18 Dec 23:36:12 23:44:37 55° 90° (E) 23:53:01 435.215
NANOSAT C BR1 18 Dec 23:36:23 23:40:26 43° 288° (WNW) 23:44:28 145.865
AUBIESAT-1 18 Dec 23:48:40 23:51:54 18° 58° (ENE) 23:55:09 437.475
QB50P1 18 Dec 23:50:40 23:54:25 31° 290° (WNW) 23:58:10 145.935-145.965
TIGRISAT 18 Dec 23:55:12 23:58:48 22° 294° (WNW) 00:02:24 435.000
ESTCUBE 1 19 Dec 00:03:59 00:04:32 10° 271° (W) 00:05:05 437.505/2401.250
M-CUBED/EXP-1 PRIME 19 Dec 00:11:31 00:15:45 31° 63° (ENE) 00:20:04 437.505
AIST 2 19 Dec 00:16:02 00:19:27 23° 248° (WSW) 00:22:48 435.215
POPSAT HIP 1 19 Dec 00:20:00 00:22:38 16° 295° (WNW) 00:25:16 437.405
UNISAT 6 19 Dec 00:24:48 00:26:34 12° 299° (WNW) 00:28:19 437.425
ITUPSAT 1 19 Dec 00:33:06 00:37:52 65° 74° (ENE) 00:42:39 437.325
SWISSCUBE 19 Dec 00:33:28 00:38:15 73° 74° (ENE) 00:43:03 437.505
SPROUT 19 Dec 00:42:01 00:44:37 16° 268° (W) 00:47:13 437.525
O/OREOS (USA 219) 19 Dec 00:42:41 00:47:00 51° 107° (ESE) 00:51:19 437.305
TISAT 1 19 Dec 00:46:08 00:47:59 13° 269° (W) 00:49:50 437.305
BEESAT 19 Dec 00:58:57 01:03:42 68° 258° (WSW) 01:08:30 436.000
KKS-1 19 Dec 00:59:02 01:02:36 24° 67° (ENE) 01:06:11 437.445
STARS 19 Dec 01:00:31 01:03:22 17° 65° (ENE) 01:06:14 437.465
PCSat 19 Dec 01:05:22 01:07:58 14° 257° (WSW) 01:10:33 145.827
Oscar 19 19 Dec 01:05:57 01:10:46 37° 98° (E) 01:15:34 437.125/150
ITAMSAT 1 19 Dec 01:18:15 01:21:41 18° 92° (E) 01:25:06 435.822/435.867
AUBIESAT-1 19 Dec 01:21:37 01:26:20 60° 255° (WSW) 01:31:12 437.475
YUBILEINY 19 Dec 01:34:09 01:41:45 33° 290° (WNW) 01:49:24 435.215
M-CUBED/EXP-1 PRIME 19 Dec 01:46:24 01:50:39 31° 260° (W) 01:55:01 437.505
ITUPSAT 1 19 Dec 02:13:58 02:16:11 13° 270° (W) 02:18:23 437.325
SWISSCUBE 19 Dec 02:15:00 02:16:36 12° 270° (W) 02:18:12 437.505
HORYU 2 19 Dec 02:21:02 02:23:40 15° 92° (E) 02:26:17 437.375
O/OREOS (USA 219) 19 Dec 02:23:50 02:26:42 17° 305° (NW) 02:29:36 437.305
KKS-1 19 Dec 02:35:12 02:39:06 30° 263° (W) 02:43:02 437.445
STARS 19 Dec 02:35:19 02:39:30 44° 261° (W) 02:43:42 437.465
Gurwin Techsat 1B 19 Dec 02:40:05 02:45:23 66° 102° (ESE) 02:50:38 435.225
Oscar 19 19 Dec 02:45:37 02:49:55 27° 294° (WNW) 02:54:12 437.125/150
VERMONT LUNAR 19 Dec 02:52:09 02:54:21 16° 148° (SSE) 02:56:33 437.305
ITAMSAT 1 19 Dec 02:56:27 03:01:30 54° 288° (WNW) 03:06:31 435.822/435.867
PHONESAT 2.4 19 Dec 02:57:43 02:59:07 12° 145° (SE) 03:00:30 2401.200-2431.200
MOZHAYETS 4 19 Dec 03:30:34 03:34:39 31° 69° (ENE) 03:38:45
GONETS M04 19 Dec 03:42:40 03:44:13 11° 72° (ENE) 03:45:45
AIST 1 19 Dec 03:45:22 03:49:40 79° 82° (E) 03:53:55
HORYU 2 19 Dec 03:56:14 04:00:37 50° 288° (WNW) 04:04:58 437.375
AO-7 19 Dec 03:57:18 04:05:25 51° 102° (ESE) 04:13:27 29.400- 29.500
Gurwin Techsat 1B 19 Dec 04:21:31 04:24:46 17° 299° (WNW) 04:28:01 435.225
VERMONT LUNAR 19 Dec 04:28:46 04:32:14 54° 163° (SSE) 04:35:42 437.305
PHONESAT 2.4 19 Dec 04:33:47 04:37:15 44° 160° (SSE) 04:40:43 2401.200-2431.200
SO-50 19 Dec 04:33:59 04:36:35 14° 38° (NE) 04:39:11 436.795
JAS-2 19 Dec 04:36:29 04:41:38 35° 95° (E) 04:46:24 435.910
CUBESAT XI-V 19 Dec 04:49:47 04:52:41 17° 64° (ENE) 04:55:36 437.345
PRISM 19 Dec 04:55:25 04:59:20 37° 71° (ENE) 05:03:15 437.425
MOZHAYETS 4 19 Dec 05:08:01 05:11:52 26° 265° (W) 05:15:44
GONETS M04 19 Dec 05:30:27 05:39:08 65° 92° (E) 05:47:51
Cubesat XI-IV 19 Dec 05:37:52 05:42:21 27° 95° (E) 05:46:49 437.490
